FENGYUN 1C DEB

Satellite information

Favourite Embed

Satellite Type and Status

DEBRISIN ORBIT

Key statistics

Satellite FENGYUN 1C DEB at a glance.

Uptime

9715

Days in orbit

Revolutions

≈ 14.5

Per day

Orbit

SSO

Sun Synchronous Orbit

Inclination

99.3

Latest

Satellite identification and parameters

Extended collection of information and parameters for FENGYUN 1C DEB.

Object identification

Identified? True

Debris? True

Object name: FENGYUN 1C DEB

International designator: 1999-025ECN

Object number (NORAD): 37006

Object ID (CCSDS): 37006

Country: PEOPLES REPUBLIC OF CHINA (PRC)

Current information (Y/N): Y

RCS size: SMALL

Orbital parameters

Period: 99.388 minutes

Inclination: 99.2978 deg

SMA: 7107.471 km

Apoapsis: 910.879 km

Periapsis: 547.793 km

RAAN: 233.3229 deg

Eccentricy: 0.0255426

Argument of periapsis: 253.4853 deg

Mean anomaly: 103.8137 deg

Mean motion: 14.4887235 rev/day

Mean motion (dot): 0.00006798 rev/day2

B* drag term: 0.0011963 1/REarth

Two-line elements (TLE)

Creation date: Dec. 11, 2025, 7:26 a.m.

Reference frame: TEME

Reference center: EARTH

Epoch: Dec. 10, 2025, 10:37 p.m. UTC

TLE line 0: 0 FENGYUN 1C DEB

TLE line 1: 1 37006U 99025ECN 25344.94271853 .00006798 00000-0 11963-2 0 9990

TLE line 2: 2 37006 99.2978 233.3229 0255426 253.4853 103.8137 14.48872350650882

Live tracking on map

Real-time ground track for satellite FENGYUN 1C DEB.

In-orbit conjunctions

A list of the most updated potential collisions computed for object FENGYUN 1C DEB.

Target Orbit TCA Probability of collision Miss distance Type
CZ-2C DEB SSO 2024-11-17 00:21:00 0.0001572922 556.0 (m) DEBRIS

Associated space launch

Chinese polar orbiting meteorological satellite

FENGYUN 1C DEB was lifted into orbit during the mission ‘Long March 4B | Feng Yun 1C’, on board a Long March 4B space rocket.

The launch took place on May 10, 1999, 1:33 a.m. from Launch Complex 7.

For more information about the launch, click the button.

Launch to space Long March 4B | Feng Yun 1C
Long March 4B | Feng Yun 1C

Agency: N/A

Status: Launch Successful

Launch date: May 10, 1999, 1:33 a.m. UTC

Rocket: Long March 4B

Launch pad: Launch Complex 7

Location: Taiyuan Satellite Launch Center, People's Republic of China

...

Latest news about this satellite

There are no fresh news available about this satellite. Check back as we update our databases every day.


Newsletter sign-up

Weekly statistics, charts and insights to help you stay on top of the space industry.